GFSCGP_prec_pwat_132.txt.gz
Precipitable_Water
0.64 0.47 0.35 0.40 0.52 0.51 0.45 0.41 0.39 0.44 0.54 0.51 0.45 0.41 0.46 0.47 0.47 0.47 0.49 0.51 0.52 0.55 0.69 0.79 0.85 0.87 0.92 1.08 1.21 1.28 1.30 1.29 1.32 1.30 1.13 1.05 0.98 0.98 0.98 1.08 1.25 1.30 1.30 1.27
0.55 0.38 0.39 0.55 0.51 0.50 0.47 0.42 0.38 0.46 0.55 0.51 0.48 0.41 0.45 0.43 0.41 0.45 0.47 0.49 0.49 0.50 0.53 0.55 0.60 0.75 0.74 0.81 1.05 1.20 1.27 1.32 1.35 1.32 1.28 1.22 1.17 1.10 1.03 1.02 1.03 1.10 1.22 1.29
0.46 0.40 0.53 0.47 0.43 0.44 0.45 0.40 0.38 0.40 0.49 0.51 0.48 0.35 0.36 0.37 0.38 0.38 0.40 0.45 0.50 0.51 0.50 0.52 0.52 0.53 0.66 0.68 0.87 1.15 1.25 1.26 1.30 1.33 1.39 1.41 1.37 1.29 1.14 1.01 0.96 0.96 1.01 1.10
0.49 0.51 0.50 0.48 0.41 0.41 0.32 0.45 0.46 0.45 0.45 0.32 0.48 0.23 0.30 0.34 0.32 0.35 0.36 0.40 0.46 0.52 0.51 0.51 0.52 0.53 0.57 0.67 0.75 0.84 0.97 1.08 1.16 1.29 1.32 1.27 1.19 1.10 1.15 1.15 1.05 1.03 1.07 1.06
0.42 0.44 0.44 0.44 0.39 0.52 0.36 0.49 0.44 0.44 0.42 0.42 0.38 0.33 0.22 0.30 0.25 0.31 0.36 0.40 0.44 0.49 0.53 0.54 0.56 0.57 0.59 0.62 0.65 0.76 0.86 0.91 0.99 1.14 1.22 1.22 1.20 1.14 1.17 1.29 1.32 1.24 1.21 1.18
0.48 0.64 0.61 0.49 0.58 0.56 0.57 0.52 0.49 0.50 0.46 0.33 0.26 0.35 0.19 0.23 0.26 0.31 0.36 0.41 0.44 0.48 0.51 0.55 0.57 0.57 0.55 0.57 0.60 0.64 0.67 0.76 0.89 0.91 0.99 1.07 1.02 0.95 1.04 1.06 1.16 1.29 1.29 1.27
0.44 0.44 0.56 0.60 0.50 0.58 0.58 0.49 0.33 0.31 0.31 0.25 0.36 0.37 0.23 0.31 0.37 0.39 0.40 0.42 0.46 0.47 0.51 0.50 0.48 0.48 0.49 0.52 0.52 0.51 0.59 0.65 0.71 0.77 0.87 0.94 0.94 0.96 0.92 0.95 0.98 1.07 1.18 1.23
0.32 0.29 0.46 0.59 0.50 0.44 0.48 0.48 0.33 0.24 0.24 0.24 0.39 0.25 0.25 0.37 0.39 0.40 0.43 0.45 0.48 0.45 0.47 0.44 0.46 0.47 0.49 0.51 0.52 0.50 0.47 0.54 0.63 0.66 0.73 0.86 0.92 0.95 0.99 0.98 0.95 0.97 1.03 1.08
0.31 0.32 0.47 0.48 0.51 0.53 0.42 0.37 0.52 0.36 0.35 0.27 0.29 0.30 0.34 0.38 0.37 0.38 0.38 0.40 0.41 0.41 0.45 0.47 0.47 0.46 0.48 0.49 0.49 0.49 0.51 0.47 0.51 0.59 0.65 0.71 0.83 0.88 0.92 0.99 1.02 1.00 1.01 1.04
0.42 0.31 0.45 0.49 0.55 0.53 0.50 0.57 0.38 0.41 0.26 0.23 0.25 0.25 0.24 0.30 0.34 0.37 0.39 0.39 0.43 0.43 0.44 0.46 0.49 0.49 0.50 0.51 0.51 0.51 0.51 0.51 0.49 0.51 0.61 0.67 0.71 0.79 0.86 0.96 0.99 0.99 1.02 1.04
0.46 0.39 0.40 0.48 0.41 0.40 0.46 0.44 0.45 0.45 0.39 0.26 0.21 0.22 0.34 0.34 0.39 0.38 0.40 0.42 0.41 0.39 0.40 0.41 0.44 0.45 0.46 0.50 0.51 0.51 0.50 0.51 0.50 0.50 0.54 0.61 0.68 0.77 0.82 0.85 0.90 0.97 1.02 1.05
0.49 0.42 0.33 0.37 0.53 0.60 0.56 0.46 0.45 0.33 0.29 0.30 0.28 0.24 0.40 0.40 0.43 0.44 0.43 0.43 0.44 0.43 0.44 0.43 0.42 0.43 0.45 0.46 0.48 0.48 0.50 0.50 0.53 0.51 0.53 0.60 0.66 0.71 0.80 0.84 0.90 0.96 0.97 1.02
0.47 0.40 0.29 0.31 0.41 0.49 0.45 0.46 0.44 0.42 0.40 0.28 0.24 0.23 0.39 0.41 0.41 0.44 0.43 0.43 0.43 0.40 0.40 0.43 0.42 0.39 0.40 0.44 0.46 0.47 0.48 0.50 0.54 0.54 0.52 0.57 0.69 0.74 0.75 0.82 0.91 0.96 0.99 1.01
0.49 0.38 0.31 0.24 0.28 0.34 0.34 0.36 0.41 0.40 0.30 0.28 0.29 0.32 0.39 0.42 0.43 0.46 0.45 0.46 0.44 0.42 0.41 0.39 0.36 0.35 0.37 0.38 0.40 0.43 0.46 0.49 0.53 0.56 0.53 0.52 0.60 0.73 0.84 0.89 0.93 0.96 0.99 0.99
0.46 0.32 0.34 0.34 0.36 0.37 0.34 0.35 0.39 0.38 0.37 0.34 0.33 0.35 0.37 0.41 0.45 0.47 0.47 0.47 0.43 0.40 0.38 0.36 0.33 0.33 0.34 0.35 0.36 0.37 0.42 0.46 0.49 0.51 0.54 0.52 0.55 0.63 0.69 0.77 0.81 0.84 0.86 0.88
0.47 0.32 0.34 0.30 0.34 0.35 0.33 0.36 0.36 0.37 0.39 0.38 0.33 0.29 0.39 0.45 0.48 0.45 0.44 0.42 0.38 0.35 0.34 0.32 0.30 0.30 0.30 0.32 0.34 0.36 0.38 0.43 0.47 0.49 0.52 0.56 0.56 0.57 0.57 0.62 0.67 0.71 0.75 0.77
0.42 0.36 0.32 0.26 0.34 0.33 0.27 0.27 0.31 0.33 0.36 0.33 0.27 0.26 0.41 0.45 0.45 0.41 0.39 0.39 0.37 0.36 0.31 0.28 0.28 0.28 0.29 0.31 0.33 0.33 0.36 0.39 0.44 0.49 0.52 0.56 0.58 0.57 0.56 0.59 0.60 0.60 0.63 0.66
0.38 0.36 0.35 0.27 0.31 0.18 0.23 0.31 0.31 0.31 0.33 0.39 0.39 0.37 0.42 0.44 0.47 0.44 0.40 0.38 0.35 0.30 0.30 0.28 0.27 0.27 0.28 0.30 0.30 0.32 0.36 0.38 0.41 0.47 0.53 0.54 0.56 0.58 0.59 0.58 0.58 0.60 0.62 0.61
0.45 0.37 0.29 0.24 0.23 0.25 0.27 0.28 0.29 0.29 0.29 0.36 0.33 0.33 0.34 0.37 0.39 0.37 0.39 0.35 0.31 0.29 0.28 0.27 0.27 0.27 0.27 0.27 0.28 0.27 0.29 0.34 0.38 0.42 0.50 0.54 0.55 0.54 0.58 0.59 0.60 0.62 0.62 0.62
0.46 0.42 0.31 0.28 0.20 0.17 0.24 0.29 0.33 0.33 0.19 0.30 0.30 0.28 0.28 0.29 0.22 0.25 0.31 0.31 0.28 0.27 0.26 0.25 0.25 0.24 0.24 0.25 0.25 0.25 0.26 0.28 0.33 0.38 0.44 0.53 0.56 0.54 0.53 0.55 0.61 0.63 0.64 0.62
0.31 0.32 0.27 0.26 0.22 0.24 0.29 0.28 0.31 0.18 0.18 0.28 0.26 0.24 0.23 0.22 0.24 0.27 0.27 0.26 0.26 0.24 0.23 0.24 0.24 0.23 0.24 0.24 0.24 0.22 0.25 0.25 0.29 0.37 0.41 0.50 0.56 0.57 0.56 0.55 0.56 0.59 0.59 0.59
0.24 0.24 0.25 0.26 0.21 0.17 0.33 0.29 0.22 0.25 0.28 0.26 0.25 0.25 0.24 0.24 0.25 0.23 0.22 0.21 0.21 0.20 0.21 0.22 0.21 0.21 0.22 0.23 0.22 0.21 0.21 0.26 0.28 0.31 0.37 0.46 0.55 0.59 0.60 0.56 0.55 0.56 0.57 0.56
0.24 0.29 0.25 0.26 0.25 0.32 0.32 0.29 0.29 0.27 0.25 0.24 0.23 0.23 0.23 0.22 0.20 0.19 0.18 0.18 0.20 0.20 0.21 0.21 0.20 0.20 0.20 0.21 0.21 0.19 0.21 0.24 0.27 0.29 0.33 0.39 0.51 0.57 0.61 0.60 0.58 0.56 0.56 0.56
0.30 0.35 0.28 0.29 0.31 0.32 0.31 0.30 0.29 0.28 0.26 0.24 0.23 0.21 0.19 0.16 0.17 0.18 0.18 0.19 0.19 0.19 0.18 0.19 0.19 0.18 0.18 0.20 0.20 0.21 0.21 0.23 0.25 0.28 0.32 0.37 0.42 0.53 0.58 0.62 0.63 0.60 0.59 0.58
0.26 0.30 0.28 0.27 0.29 0.28 0.26 0.25 0.24 0.22 0.20 0.18 0.17 0.18 0.18 0.17 0.16 0.15 0.15 0.16 0.17 0.17 0.18 0.19 0.19 0.19 0.19 0.19 0.19 0.21 0.22 0.23 0.24 0.28 0.32 0.37 0.40 0.45 0.55 0.58 0.61 0.63 0.64 0.63
0.24 0.23 0.22 0.20 0.24 0.22 0.19 0.18 0.17 0.16 0.16 0.16 0.15 0.13 0.12 0.12 0.11 0.12 0.12 0.14 0.14 0.15 0.16 0.18 0.19 0.20 0.21 0.21 0.20 0.21 0.23 0.24 0.25 0.27 0.32 0.37 0.40 0.43 0.46 0.55 0.57 0.63 0.66 0.67

GFSCGP_prec_pwat_135.txt.gz
Precipitable_Water
0.61 0.45 0.32 0.44 0.48 0.48 0.43 0.39 0.36 0.43 0.49 0.47 0.45 0.42 0.43 0.48 0.47 0.46 0.45 0.45 0.47 0.51 0.54 0.60 0.75 0.92 1.00 1.04 1.01 0.98 1.07 1.17 1.32 1.35 1.33 1.26 1.26 1.23 1.17 1.13 1.07 1.01 1.03 1.18
0.52 0.37 0.49 0.52 0.49 0.47 0.45 0.41 0.36 0.45 0.50 0.48 0.44 0.41 0.45 0.48 0.45 0.46 0.43 0.41 0.43 0.45 0.52 0.54 0.56 0.65 0.84 0.89 0.89 0.89 0.85 1.10 1.22 1.35 1.42 1.46 1.37 1.36 1.31 1.24 1.20 1.16 1.06 0.98
0.44 0.41 0.53 0.50 0.45 0.40 0.43 0.38 0.38 0.39 0.46 0.52 0.47 0.35 0.34 0.40 0.41 0.42 0.43 0.42 0.43 0.43 0.45 0.52 0.56 0.58 0.61 0.72 0.78 0.84 0.82 0.94 1.16 1.37 1.41 1.40 1.44 1.40 1.39 1.34 1.23 1.21 1.21 1.10
0.50 0.52 0.51 0.50 0.42 0.44 0.32 0.42 0.45 0.45 0.43 0.30 0.47 0.23 0.26 0.32 0.32 0.36 0.38 0.40 0.40 0.41 0.45 0.47 0.53 0.58 0.60 0.65 0.77 0.84 0.91 0.88 0.97 1.20 1.31 1.29 1.25 1.22 1.27 1.22 1.34 1.27 1.29 1.25
0.35 0.42 0.42 0.41 0.39 0.51 0.38 0.48 0.43 0.42 0.38 0.38 0.32 0.34 0.22 0.31 0.27 0.33 0.37 0.35 0.39 0.45 0.46 0.48 0.53 0.58 0.64 0.66 0.70 0.80 0.86 0.88 0.88 0.93 1.00 1.06 1.13 1.22 1.30 1.29 1.25 1.24 1.31 1.38
0.36 0.51 0.47 0.43 0.47 0.51 0.53 0.49 0.47 0.47 0.42 0.29 0.24 0.34 0.19 0.22 0.26 0.32 0.39 0.41 0.43 0.47 0.50 0.51 0.51 0.52 0.53 0.60 0.63 0.65 0.67 0.71 0.80 0.87 0.91 0.92 0.97 1.02 1.08 1.11 1.15 1.02 1.06 1.20
0.42 0.42 0.51 0.53 0.43 0.51 0.50 0.43 0.31 0.28 0.29 0.22 0.34 0.35 0.23 0.30 0.36 0.38 0.41 0.44 0.46 0.50 0.49 0.48 0.44 0.43 0.45 0.48 0.54 0.56 0.54 0.52 0.60 0.70 0.79 0.89 0.93 0.96 0.98 1.07 1.04 1.00 0.98 1.04
0.29 0.25 0.39 0.48 0.45 0.43 0.45 0.42 0.32 0.23 0.23 0.26 0.39 0.28 0.25 0.38 0.42 0.43 0.45 0.48 0.50 0.51 0.50 0.47 0.44 0.43 0.46 0.48 0.49 0.51 0.54 0.54 0.53 0.52 0.61 0.71 0.79 0.85 0.94 1.02 1.07 1.08 1.04 1.03
0.31 0.29 0.48 0.47 0.47 0.48 0.42 0.38 0.48 0.37 0.37 0.31 0.32 0.32 0.36 0.39 0.40 0.41 0.43 0.44 0.45 0.47 0.47 0.47 0.47 0.46 0.46 0.47 0.48 0.50 0.50 0.52 0.56 0.53 0.51 0.55 0.66 0.75 0.80 0.91 1.03 1.08 1.11 1.11
0.40 0.30 0.44 0.49 0.55 0.54 0.47 0.55 0.37 0.39 0.24 0.20 0.22 0.25 0.26 0.31 0.35 0.39 0.40 0.42 0.42 0.43 0.44 0.45 0.46 0.47 0.47 0.48 0.51 0.51 0.53 0.53 0.55 0.57 0.55 0.51 0.54 0.65 0.75 0.83 0.86 0.95 1.03 1.09
0.47 0.38 0.38 0.46 0.37 0.33 0.41 0.39 0.43 0.40 0.36 0.24 0.23 0.28 0.40 0.39 0.41 0.41 0.42 0.41 0.40 0.40 0.41 0.44 0.45 0.45 0.45 0.46 0.47 0.49 0.51 0.52 0.53 0.55 0.58 0.57 0.53 0.56 0.68 0.73 0.83 0.91 0.97 1.01
0.51 0.44 0.33 0.36 0.49 0.51 0.46 0.39 0.39 0.29 0.28 0.36 0.34 0.30 0.46 0.44 0.45 0.45 0.42 0.43 0.44 0.45 0.45 0.45 0.44 0.42 0.41 0.41 0.42 0.43 0.45 0.48 0.52 0.54 0.55 0.58 0.59 0.56 0.64 0.74 0.75 0.85 0.91 1.00
0.46 0.41 0.29 0.32 0.41 0.50 0.42 0.45 0.45 0.42 0.40 0.32 0.28 0.28 0.45 0.46 0.46 0.46 0.45 0.46 0.47 0.49 0.50 0.48 0.44 0.41 0.39 0.38 0.39 0.38 0.39 0.41 0.46 0.48 0.52 0.53 0.57 0.58 0.57 0.68 0.86 0.87 0.89 0.93
0.50 0.39 0.32 0.23 0.25 0.38 0.37 0.43 0.47 0.44 0.33 0.29 0.28 0.30 0.38 0.42 0.46 0.47 0.48 0.49 0.49 0.49 0.49 0.48 0.45 0.42 0.40 0.39 0.38 0.36 0.35 0.37 0.38 0.40 0.45 0.50 0.53 0.57 0.58 0.61 0.67 0.86 0.96 0.96
0.49 0.36 0.39 0.41 0.40 0.37 0.34 0.33 0.38 0.37 0.35 0.29 0.28 0.33 0.35 0.48 0.54 0.57 0.58 0.55 0.52 0.48 0.48 0.47 0.44 0.41 0.38 0.35 0.34 0.34 0.33 0.32 0.34 0.35 0.38 0.44 0.51 0.55 0.59 0.60 0.60 0.64 0.79 0.83
0.52 0.36 0.40 0.36 0.38 0.36 0.32 0.33 0.35 0.34 0.36 0.34 0.34 0.35 0.52 0.55 0.55 0.52 0.52 0.51 0.47 0.46 0.45 0.43 0.40 0.36 0.31 0.30 0.29 0.29 0.28 0.27 0.29 0.30 0.34 0.40 0.46 0.52 0.54 0.58 0.60 0.61 0.62 0.69
0.43 0.38 0.34 0.28 0.36 0.33 0.25 0.26 0.30 0.32 0.35 0.34 0.30 0.31 0.50 0.47 0.48 0.47 0.47 0.46 0.45 0.46 0.42 0.38 0.34 0.31 0.30 0.28 0.27 0.27 0.26 0.26 0.27 0.27 0.28 0.34 0.38 0.43 0.52 0.55 0.58 0.59 0.58 0.60
0.44 0.41 0.38 0.29 0.32 0.20 0.26 0.33 0.33 0.32 0.36 0.40 0.39 0.41 0.44 0.46 0.47 0.46 0.46 0.43 0.41 0.39 0.37 0.35 0.32 0.30 0.29 0.27 0.27 0.25 0.25 0.25 0.25 0.25 0.26 0.27 0.31 0.36 0.44 0.52 0.54 0.58 0.60 0.60
0.48 0.42 0.33 0.25 0.22 0.24 0.26 0.29 0.29 0.28 0.28 0.35 0.33 0.36 0.38 0.40 0.42 0.40 0.41 0.38 0.36 0.34 0.32 0.31 0.30 0.28 0.27 0.25 0.25 0.22 0.22 0.23 0.24 0.23 0.24 0.25 0.27 0.31 0.36 0.43 0.52 0.57 0.58 0.59
0.46 0.44 0.33 0.28 0.20 0.16 0.26 0.31 0.35 0.36 0.23 0.34 0.34 0.32 0.32 0.33 0.26 0.30 0.34 0.32 0.30 0.29 0.28 0.26 0.25 0.25 0.24 0.24 0.22 0.21 0.21 0.21 0.20 0.21 0.22 0.24 0.27 0.29 0.32 0.38 0.45 0.55 0.60 0.57
0.32 0.33 0.26 0.25 0.22 0.24 0.28 0.32 0.36 0.21 0.20 0.29 0.29 0.28 0.28 0.25 0.25 0.26 0.27 0.26 0.26 0.25 0.24 0.24 0.22 0.20 0.21 0.21 0.21 0.19 0.19 0.19 0.20 0.20 0.22 0.23 0.26 0.29 0.33 0.37 0.43 0.49 0.56 0.59
0.29 0.27 0.26 0.27 0.22 0.18 0.32 0.29 0.23 0.26 0.30 0.29 0.27 0.26 0.25 0.26 0.26 0.25 0.24 0.23 0.21 0.19 0.18 0.18 0.18 0.18 0.19 0.20 0.20 0.19 0.18 0.19 0.19 0.20 0.21 0.22 0.24 0.28 0.33 0.36 0.40 0.46 0.50 0.56
0.27 0.30 0.27 0.28 0.25 0.31 0.32 0.29 0.31 0.33 0.30 0.28 0.27 0.26 0.26 0.24 0.21 0.18 0.16 0.16 0.16 0.15 0.14 0.14 0.14 0.14 0.15 0.16 0.17 0.16 0.18 0.20 0.20 0.19 0.19 0.20 0.23 0.27 0.32 0.36 0.38 0.42 0.48 0.49
0.32 0.35 0.27 0.27 0.29 0.29 0.29 0.30 0.31 0.30 0.30 0.28 0.27 0.24 0.21 0.16 0.16 0.15 0.13 0.11 0.11 0.12 0.12 0.13 0.13 0.13 0.13 0.15 0.16 0.17 0.18 0.20 0.20 0.20 0.20 0.21 0.22 0.26 0.31 0.36 0.40 0.42 0.44 0.48
0.27 0.31 0.27 0.25 0.27 0.28 0.29 0.30 0.31 0.29 0.27 0.23 0.20 0.16 0.15 0.13 0.12 0.11 0.11 0.11 0.11 0.12 0.12 0.12 0.12 0.12 0.13 0.15 0.16 0.17 0.19 0.20 0.20 0.21 0.22 0.23 0.24 0.26 0.29 0.34 0.38 0.41 0.46 0.49
0.27 0.27 0.24 0.22 0.28 0.29 0.28 0.28 0.26 0.23 0.19 0.15 0.15 0.13 0.12 0.11 0.10 0.10 0.10 0.11 0.11 0.11 0.12 0.12 0.13 0.13 0.14 0.16 0.17 0.18 0.20 0.21 0.21 0.22 0.23 0.24 0.25 0.27 0.31 0.33 0.36 0.42 0.45 0.48

GFSCGP_prec_pwat_138.txt.gz
Precipitable_Water
0.60 0.45 0.35 0.41 0.46 0.44 0.41 0.35 0.33 0.39 0.46 0.43 0.38 0.36 0.38 0.45 0.48 0.46 0.48 0.48 0.49 0.49 0.53 0.56 0.56 0.60 0.71 0.90 1.00 1.02 1.07 1.11 1.10 1.09 1.14 1.22 1.25 1.35 1.40 1.41 1.36 1.27 1.23 1.17
0.50 0.37 0.46 0.51 0.50 0.45 0.43 0.38 0.37 0.43 0.46 0.42 0.42 0.36 0.42 0.43 0.43 0.47 0.48 0.48 0.48 0.48 0.45 0.45 0.50 0.57 0.62 0.66 0.78 0.93 0.99 1.01 1.01 0.99 1.07 1.22 1.25 1.37 1.45 1.47 1.48 1.41 1.35 1.28
0.40 0.44 0.52 0.49 0.45 0.42 0.40 0.36 0.36 0.34 0.43 0.46 0.41 0.31 0.35 0.37 0.42 0.42 0.44 0.44 0.44 0.41 0.43 0.44 0.46 0.50 0.56 0.61 0.69 0.78 0.89 1.00 1.03 1.06 1.11 1.20 1.35 1.43 1.39 1.38 1.36 1.42 1.43 1.38
0.42 0.50 0.47 0.45 0.41 0.46 0.32 0.44 0.43 0.40 0.39 0.27 0.39 0.22 0.29 0.32 0.30 0.35 0.37 0.39 0.40 0.43 0.45 0.46 0.47 0.49 0.52 0.56 0.64 0.75 0.87 0.95 1.04 1.10 1.10 1.04 1.08 1.16 1.31 1.34 1.36 1.41 1.38 1.37
0.38 0.48 0.45 0.41 0.42 0.49 0.38 0.49 0.44 0.43 0.38 0.36 0.29 0.32 0.25 0.30 0.23 0.27 0.32 0.35 0.39 0.40 0.42 0.48 0.50 0.50 0.53 0.56 0.57 0.62 0.74 0.88 0.99 1.08 1.11 1.07 1.00 1.03 1.10 1.17 1.29 1.27 1.36 1.38
0.40 0.56 0.49 0.44 0.52 0.52 0.51 0.47 0.47 0.47 0.42 0.26 0.27 0.29 0.20 0.19 0.22 0.28 0.35 0.39 0.43 0.45 0.46 0.49 0.52 0.52 0.51 0.52 0.53 0.55 0.56 0.61 0.67 0.73 0.84 0.94 0.97 0.97 1.00 1.05 1.07 1.19 1.27 1.30
0.39 0.38 0.45 0.48 0.37 0.47 0.46 0.40 0.28 0.26 0.26 0.20 0.30 0.30 0.22 0.28 0.33 0.37 0.38 0.43 0.47 0.50 0.48 0.47 0.48 0.49 0.51 0.50 0.49 0.49 0.50 0.50 0.54 0.57 0.58 0.65 0.75 0.85 0.91 0.96 1.04 1.08 1.10 1.17
0.27 0.26 0.39 0.47 0.38 0.30 0.31 0.31 0.23 0.17 0.19 0.20 0.34 0.24 0.23 0.37 0.41 0.44 0.46 0.46 0.50 0.49 0.50 0.49 0.51 0.52 0.51 0.49 0.48 0.48 0.48 0.48 0.53 0.54 0.56 0.59 0.58 0.63 0.72 0.79 0.84 0.93 1.02 1.09
0.28 0.27 0.45 0.47 0.49 0.46 0.38 0.33 0.41 0.31 0.33 0.28 0.30 0.36 0.40 0.42 0.41 0.43 0.44 0.47 0.48 0.49 0.50 0.51 0.54 0.53 0.51 0.49 0.48 0.46 0.46 0.49 0.51 0.52 0.56 0.58 0.60 0.59 0.56 0.64 0.74 0.82 0.95 1.03
0.36 0.26 0.39 0.43 0.50 0.49 0.43 0.46 0.32 0.36 0.23 0.22 0.27 0.27 0.26 0.31 0.34 0.39 0.42 0.47 0.49 0.49 0.49 0.49 0.49 0.48 0.48 0.49 0.49 0.49 0.49 0.49 0.49 0.51 0.53 0.55 0.59 0.62 0.64 0.63 0.67 0.73 0.81 0.95
0.44 0.34 0.34 0.43 0.36 0.33 0.38 0.36 0.38 0.38 0.34 0.23 0.18 0.21 0.37 0.36 0.39 0.42 0.46 0.47 0.49 0.50 0.49 0.48 0.47 0.46 0.44 0.44 0.43 0.43 0.42 0.42 0.44 0.47 0.48 0.50 0.53 0.56 0.59 0.63 0.66 0.75 0.81 0.84
0.47 0.41 0.30 0.30 0.43 0.48 0.45 0.38 0.38 0.30 0.24 0.32 0.32 0.27 0.40 0.42 0.47 0.51 0.47 0.50 0.52 0.51 0.49 0.48 0.47 0.44 0.41 0.39 0.39 0.38 0.38 0.37 0.37 0.38 0.40 0.45 0.50 0.53 0.55 0.57 0.62 0.67 0.74 0.89
0.45 0.37 0.27 0.31 0.39 0.45 0.40 0.42 0.41 0.39 0.37 0.28 0.25 0.24 0.41 0.44 0.51 0.51 0.54 0.55 0.52 0.51 0.51 0.50 0.49 0.47 0.46 0.44 0.42 0.40 0.38 0.36 0.36 0.36 0.35 0.36 0.39 0.43 0.48 0.53 0.58 0.61 0.61 0.70
0.51 0.38 0.30 0.22 0.25 0.34 0.35 0.36 0.41 0.40 0.31 0.28 0.27 0.29 0.32 0.42 0.43 0.48 0.49 0.50 0.52 0.52 0.51 0.51 0.50 0.49 0.47 0.45 0.42 0.41 0.38 0.36 0.33 0.34 0.32 0.31 0.32 0.35 0.38 0.44 0.52 0.56 0.59 0.59
0.48 0.34 0.37 0.38 0.38 0.37 0.35 0.35 0.41 0.39 0.39 0.33 0.32 0.33 0.36 0.43 0.47 0.54 0.59 0.59 0.60 0.58 0.55 0.53 0.49 0.46 0.45 0.43 0.40 0.39 0.35 0.32 0.31 0.29 0.29 0.28 0.29 0.29 0.28 0.34 0.41 0.50 0.56 0.58
0.50 0.36 0.40 0.35 0.38 0.37 0.33 0.37 0.38 0.39 0.38 0.37 0.38 0.34 0.47 0.53 0.58 0.58 0.57 0.58 0.54 0.49 0.50 0.50 0.49 0.47 0.44 0.41 0.38 0.35 0.30 0.28 0.28 0.26 0.25 0.25 0.26 0.25 0.24 0.27 0.32 0.39 0.47 0.55
0.41 0.39 0.36 0.27 0.36 0.37 0.30 0.38 0.38 0.37 0.39 0.36 0.29 0.36 0.47 0.51 0.52 0.54 0.54 0.53 0.50 0.49 0.45 0.43 0.43 0.41 0.40 0.37 0.35 0.30 0.28 0.27 0.25 0.24 0.23 0.23 0.23 0.21 0.22 0.24 0.26 0.30 0.38 0.47
0.40 0.38 0.37 0.30 0.34 0.22 0.31 0.39 0.38 0.35 0.36 0.42 0.38 0.39 0.44 0.47 0.49 0.49 0.49 0.47 0.45 0.45 0.42 0.40 0.37 0.34 0.32 0.30 0.28 0.26 0.25 0.24 0.23 0.22 0.21 0.20 0.20 0.20 0.21 0.22 0.24 0.27 0.31 0.38
0.52 0.42 0.34 0.28 0.26 0.29 0.31 0.33 0.33 0.31 0.29 0.37 0.37 0.40 0.43 0.45 0.45 0.43 0.46 0.44 0.42 0.40 0.38 0.36 0.33 0.29 0.27 0.25 0.23 0.22 0.21 0.20 0.20 0.20 0.20 0.20 0.20 0.20 0.20 0.21 0.22 0.25 0.29 0.32
0.49 0.47 0.37 0.30 0.24 0.18 0.26 0.31 0.35 0.36 0.21 0.34 0.36 0.34 0.36 0.39 0.33 0.37 0.40 0.37 0.34 0.32 0.29 0.26 0.25 0.23 0.22 0.19 0.18 0.16 0.16 0.16 0.15 0.16 0.17 0.19 0.21 0.21 0.20 0.21 0.22 0.25 0.29 0.31
0.35 0.36 0.31 0.27 0.25 0.25 0.31 0.32 0.35 0.20 0.20 0.31 0.33 0.33 0.33 0.31 0.32 0.31 0.30 0.27 0.26 0.25 0.24 0.22 0.19 0.15 0.14 0.14 0.14 0.13 0.13 0.13 0.14 0.15 0.16 0.17 0.19 0.20 0.22 0.23 0.24 0.26 0.28 0.30
0.29 0.28 0.27 0.28 0.23 0.18 0.32 0.30 0.24 0.28 0.31 0.31 0.29 0.28 0.27 0.26 0.26 0.26 0.25 0.24 0.23 0.19 0.16 0.14 0.12 0.12 0.13 0.13 0.12 0.12 0.12 0.13 0.14 0.15 0.15 0.16 0.18 0.20 0.21 0.23 0.26 0.27 0.29 0.29
0.31 0.33 0.27 0.28 0.26 0.31 0.31 0.29 0.32 0.32 0.31 0.29 0.28 0.27 0.28 0.27 0.26 0.25 0.22 0.18 0.15 0.13 0.12 0.12 0.11 0.11 0.11 0.12 0.12 0.11 0.12 0.13 0.13 0.14 0.14 0.16 0.17 0.20 0.22 0.24 0.26 0.28 0.30 0.30
0.38 0.41 0.32 0.31 0.31 0.31 0.31 0.31 0.32 0.31 0.29 0.29 0.30 0.29 0.28 0.25 0.23 0.17 0.15 0.13 0.11 0.11 0.11 0.11 0.11 0.11 0.11 0.12 0.12 0.12 0.13 0.14 0.14 0.14 0.15 0.16 0.18 0.19 0.22 0.26 0.29 0.30 0.31 0.31
0.35 0.37 0.32 0.29 0.30 0.29 0.31 0.31 0.31 0.30 0.30 0.29 0.29 0.27 0.24 0.18 0.14 0.12 0.10 0.10 0.11 0.11 0.11 0.11 0.11 0.11 0.11 0.12 0.13 0.14 0.14 0.15 0.14 0.15 0.16 0.18 0.19 0.20 0.23 0.27 0.30 0.31 0.33 0.33
0.33 0.30 0.26 0.23 0.29 0.29 0.29 0.30 0.30 0.29 0.29 0.28 0.24 0.20 0.16 0.13 0.10 0.10 0.11 0.11 0.11 0.11 0.11 0.11 0.11 0.12 0.12 0.13 0.13 0.14 0.15 0.16 0.15 0.16 0.17 0.19 0.20 0.22 0.24 0.27 0.31 0.35 0.34 0.33

GFSCGP_prec_pwat_141.txt.gz
Precipitable_Water
0.54 0.41 0.30 0.35 0.42 0.43 0.40 0.35 0.33 0.40 0.45 0.39 0.33 0.32 0.36 0.42 0.45 0.44 0.44 0.45 0.45 0.47 0.53 0.55 0.57 0.59 0.58 0.62 0.71 0.79 0.89 0.96 1.08 1.10 1.10 1.11 1.02 1.09 1.16 1.28 1.36 1.46 1.45 1.42
0.45 0.33 0.44 0.48 0.44 0.42 0.39 0.35 0.34 0.42 0.48 0.43 0.39 0.29 0.36 0.40 0.41 0.45 0.43 0.42 0.43 0.43 0.46 0.51 0.49 0.51 0.51 0.52 0.62 0.72 0.80 0.90 0.99 1.05 1.06 1.12 1.12 1.15 1.18 1.26 1.35 1.47 1.48 1.43
0.36 0.39 0.47 0.45 0.42 0.39 0.39 0.37 0.38 0.36 0.43 0.42 0.36 0.24 0.28 0.33 0.38 0.37 0.39 0.40 0.40 0.40 0.40 0.43 0.46 0.48 0.49 0.49 0.53 0.62 0.74 0.85 0.96 1.03 1.09 1.13 1.25 1.28 1.15 1.21 1.29 1.45 1.48 1.46
0.41 0.47 0.45 0.44 0.42 0.47 0.34 0.47 0.45 0.42 0.38 0.25 0.38 0.17 0.25 0.29 0.27 0.29 0.32 0.36 0.36 0.36 0.39 0.44 0.45 0.48 0.50 0.52 0.61 0.66 0.71 0.80 0.91 1.02 1.05 1.04 1.06 1.05 1.06 1.16 1.26 1.32 1.48 1.47
0.33 0.37 0.35 0.37 0.39 0.47 0.39 0.48 0.44 0.44 0.38 0.35 0.32 0.30 0.21 0.28 0.23 0.24 0.29 0.33 0.37 0.38 0.39 0.42 0.46 0.48 0.51 0.53 0.54 0.56 0.59 0.65 0.73 0.89 1.02 1.05 1.06 1.10 1.11 1.14 1.11 1.12 1.18 1.27
0.41 0.55 0.48 0.43 0.47 0.47 0.51 0.49 0.47 0.45 0.39 0.23 0.28 0.28 0.18 0.21 0.22 0.26 0.32 0.38 0.42 0.44 0.47 0.48 0.50 0.51 0.53 0.56 0.57 0.58 0.59 0.61 0.62 0.63 0.65 0.68 0.77 0.88 0.93 0.99 1.01 1.08 1.11 1.13
0.40 0.41 0.51 0.52 0.45 0.54 0.52 0.43 0.28 0.24 0.24 0.19 0.29 0.26 0.23 0.27 0.28 0.32 0.34 0.40 0.48 0.47 0.47 0.50 0.51 0.52 0.53 0.54 0.56 0.57 0.55 0.53 0.56 0.57 0.56 0.55 0.54 0.56 0.62 0.68 0.76 0.87 0.96 1.04
0.26 0.24 0.39 0.47 0.38 0.34 0.37 0.33 0.24 0.17 0.16 0.18 0.29 0.20 0.21 0.29 0.35 0.42 0.46 0.47 0.50 0.49 0.51 0.52 0.53 0.53 0.53 0.53 0.53 0.54 0.52 0.51 0.52 0.52 0.54 0.58 0.58 0.57 0.56 0.58 0.60 0.65 0.73 0.83
0.27 0.26 0.42 0.44 0.45 0.40 0.34 0.29 0.35 0.26 0.26 0.21 0.21 0.24 0.27 0.32 0.36 0.41 0.44 0.50 0.48 0.48 0.50 0.51 0.53 0.53 0.53 0.53 0.52 0.51 0.50 0.49 0.48 0.48 0.50 0.53 0.55 0.56 0.57 0.60 0.64 0.66 0.74 0.81
0.31 0.23 0.37 0.41 0.48 0.47 0.40 0.43 0.30 0.34 0.20 0.18 0.24 0.25 0.23 0.32 0.34 0.40 0.43 0.46 0.49 0.50 0.50 0.51 0.52 0.51 0.50 0.48 0.47 0.46 0.45 0.44 0.45 0.45 0.46 0.45 0.47 0.51 0.55 0.56 0.56 0.59 0.64 0.67
0.37 0.32 0.30 0.39 0.32 0.30 0.37 0.34 0.37 0.36 0.33 0.23 0.21 0.21 0.32 0.34 0.38 0.37 0.41 0.45 0.48 0.50 0.51 0.51 0.49 0.48 0.46 0.44 0.43 0.41 0.40 0.38 0.38 0.38 0.38 0.38 0.40 0.44 0.46 0.46 0.49 0.54 0.58 0.60
0.38 0.34 0.25 0.27 0.39 0.42 0.39 0.33 0.37 0.29 0.25 0.30 0.27 0.21 0.43 0.42 0.44 0.41 0.43 0.48 0.52 0.54 0.53 0.51 0.49 0.46 0.43 0.42 0.43 0.43 0.42 0.40 0.40 0.39 0.40 0.38 0.37 0.37 0.35 0.33 0.36 0.42 0.46 0.53
0.38 0.33 0.23 0.24 0.33 0.40 0.35 0.39 0.39 0.37 0.36 0.27 0.25 0.22 0.43 0.44 0.42 0.44 0.44 0.48 0.51 0.52 0.49 0.48 0.46 0.47 0.48 0.47 0.46 0.47 0.45 0.41 0.40 0.39 0.38 0.36 0.34 0.33 0.32 0.31 0.32 0.33 0.35 0.39
0.47 0.33 0.27 0.17 0.26 0.35 0.30 0.34 0.38 0.38 0.30 0.26 0.26 0.27 0.36 0.39 0.40 0.44 0.45 0.45 0.47 0.50 0.52 0.49 0.50 0.51 0.50 0.48 0.48 0.49 0.45 0.42 0.40 0.37 0.34 0.31 0.29 0.26 0.27 0.25 0.25 0.26 0.28 0.28
0.45 0.33 0.35 0.32 0.33 0.33 0.31 0.33 0.35 0.35 0.32 0.29 0.28 0.32 0.38 0.44 0.46 0.48 0.49 0.51 0.53 0.51 0.53 0.55 0.57 0.58 0.54 0.51 0.49 0.49 0.44 0.41 0.38 0.35 0.33 0.31 0.28 0.26 0.24 0.22 0.22 0.22 0.23 0.25
0.47 0.31 0.34 0.29 0.36 0.36 0.32 0.35 0.34 0.36 0.37 0.38 0.37 0.34 0.46 0.55 0.53 0.49 0.50 0.53 0.53 0.55 0.59 0.55 0.51 0.49 0.50 0.47 0.44 0.42 0.38 0.37 0.35 0.31 0.28 0.27 0.25 0.24 0.23 0.23 0.21 0.21 0.21 0.23
0.36 0.36 0.35 0.27 0.32 0.33 0.29 0.27 0.34 0.36 0.40 0.37 0.31 0.35 0.50 0.47 0.49 0.52 0.51 0.52 0.54 0.56 0.55 0.51 0.49 0.46 0.44 0.41 0.38 0.33 0.29 0.28 0.25 0.23 0.22 0.21 0.21 0.20 0.20 0.21 0.21 0.21 0.21 0.22
0.38 0.31 0.33 0.27 0.33 0.21 0.28 0.38 0.39 0.37 0.38 0.46 0.45 0.46 0.50 0.49 0.48 0.48 0.49 0.49 0.51 0.50 0.49 0.47 0.46 0.42 0.39 0.36 0.31 0.27 0.25 0.22 0.19 0.17 0.17 0.17 0.17 0.17 0.17 0.18 0.18 0.19 0.20 0.22
0.44 0.41 0.31 0.25 0.23 0.28 0.30 0.31 0.33 0.34 0.32 0.45 0.45 0.46 0.46 0.47 0.47 0.45 0.48 0.47 0.44 0.44 0.43 0.42 0.39 0.35 0.29 0.25 0.24 0.20 0.18 0.17 0.16 0.15 0.15 0.15 0.15 0.14 0.15 0.15 0.16 0.17 0.18 0.20
0.45 0.44 0.36 0.29 0.23 0.18 0.25 0.34 0.41 0.46 0.29 0.43 0.44 0.42 0.42 0.44 0.35 0.38 0.43 0.42 0.42 0.41 0.38 0.34 0.28 0.25 0.23 0.19 0.16 0.14 0.14 0.13 0.12 0.13 0.13 0.13 0.13 0.13 0.13 0.14 0.14 0.16 0.18 0.20
0.29 0.36 0.29 0.28 0.26 0.31 0.37 0.39 0.42 0.26 0.23 0.36 0.37 0.40 0.41 0.37 0.39 0.42 0.41 0.40 0.38 0.34 0.28 0.26 0.24 0.19 0.15 0.14 0.13 0.12 0.12 0.11 0.12 0.12 0.12 0.12 0.13 0.13 0.14 0.14 0.16 0.17 0.18 0.20
0.32 0.31 0.30 0.31 0.27 0.23 0.38 0.37 0.30 0.33 0.36 0.35 0.35 0.37 0.37 0.38 0.36 0.34 0.33 0.29 0.27 0.25 0.24 0.19 0.15 0.13 0.13 0.13 0.13 0.11 0.11 0.12 0.12 0.12 0.12 0.12 0.13 0.13 0.14 0.15 0.16 0.18 0.20 0.21
0.31 0.36 0.31 0.34 0.30 0.37 0.39 0.34 0.38 0.37 0.33 0.33 0.33 0.33 0.32 0.31 0.28 0.27 0.27 0.26 0.24 0.21 0.16 0.14 0.13 0.12 0.12 0.12 0.12 0.11 0.11 0.12 0.12 0.12 0.12 0.13 0.14 0.14 0.15 0.16 0.17 0.19 0.22 0.24
0.41 0.43 0.34 0.34 0.35 0.35 0.34 0.34 0.35 0.35 0.33 0.32 0.31 0.29 0.28 0.27 0.28 0.27 0.25 0.23 0.18 0.14 0.12 0.11 0.11 0.10 0.10 0.11 0.11 0.12 0.12 0.13 0.13 0.13 0.13 0.14 0.14 0.15 0.16 0.18 0.20 0.22 0.23 0.23
0.39 0.42 0.37 0.35 0.36 0.36 0.34 0.33 0.33 0.33 0.32 0.31 0.30 0.29 0.29 0.28 0.27 0.24 0.21 0.15 0.12 0.11 0.11 0.11 0.11 0.11 0.11 0.11 0.12 0.13 0.13 0.14 0.14 0.14 0.15 0.15 0.15 0.15 0.16 0.18 0.20 0.22 0.25 0.26
0.39 0.38 0.33 0.31 0.35 0.34 0.33 0.33 0.31 0.30 0.29 0.29 0.29 0.28 0.28 0.27 0.23 0.18 0.13 0.12 0.11 0.11 0.11 0.11 0.11 0.11 0.12 0.12 0.13 0.14 0.15 0.15 0.15 0.15 0.15 0.15 0.15 0.16 0.16 0.16 0.18 0.23 0.26 0.27